Weather in Ordzhonikidzevskoye

Russia / Republic of Khakassia     54°46′31″N   88°57′59″E
temp.,
°C
wind,
m/s
gust,
m/s
humid.,
%
clouds,
%
prec.,
mm/h
press.,
hPa
HPBL,
m
4 march, thu
thu401:00−16wsw229338 0.1 102522
04:00−18sw22920 0.0 102630
07:00−19sw22921 0.0 102831
10:00−12sw3118218 0.0 1027643
13:00−7sw387529 0.0 10251039
16:00−7ssw3107590 0.0 10241082
19:00−10ssw239194 0.0 102348
22:00−11sw2392100 0.0 102264
5 march, fri
fri501:00−11sw2392100 0.0 102167
04:00−12ssw2392100 0.0 102053
07:00−11ssw3485100 0.0 101987
10:00−7ssw367863 0.0 1016242
13:00−2sw5116681 0.0 10151612
16:00−3sw6147842 0.0 10151285
19:00−5wsw7178256 0.7 10181553
22:00−7wsw8177947 0.1 10201187
6 march, sat
sat601:00−7wsw7177961 0.2 10211345
04:00−7wsw11237898 0.8 10201434
07:00−7wsw11227892 1.6 10211286
10:00−6wsw102179100 0.5 10201217
13:00−5wsw10207899 0.9 10191223
16:00−5wsw9197599 0.1 10181380
19:00−6wsw7197599 0.1 10171222
22:00−6wsw7206991 0.0 10161147
7 march, sun
sun701:00−6wsw8216971 0.0 10161160
04:00−6wsw9227293 0.0 10151156
07:00−6wsw9207790 0.3 10161002
10:00−5wsw6167778 0.0 1017973
13:00−3wsw4127788 0.0 1018942
16:00−2wsw2778100 0.0 10171013
19:00−7ssw2291100 0.0 101751
22:00−9ssw2489100 0.0 101690
8 march, mon
mon801:00−7ssw31684100 0.0 1016677
04:00−6sw3197897 0.0 1015810
07:00−6sw3177699 0.0 1016645
10:00−2wsw41679100 0.0 10151137
13:000wsw71676100 0.0 10151224
16:000wsw61675100 0.0 10141235
19:00−5sw31484100 0.0 1015595
22:00−8ssw129195 0.0 101743